User: anonymous   Login
Location: Caltech
(34.1382°N, 118.1253°W)
Time: 19:06:36
(UTC-07:00)
Language:

TMSAT-1 - Orbit

View from above orbital plane
View from above orbital plane
View from above satellite
View from above satellite

Ground track
Ground track

The orbit data is extracted from the following two-line orbital elements,

1 25396U 98043C   16151.47078191  .00000033  00000-0  32615-4 0  9997
2 25396  98.5382  99.2017 0003024  25.6600 334.4729 14.24394305929689
Epoch (UTC): 30 May 2016 11:17:55
Eccentricity: 0.0003024
inclination: 98.5382°
perigee height: 808 km
apogee height: 813 km
right ascension of ascending node: 99.2017°
argument of perigee: 25.6600°
revolutions per day: 14.24394305
mean anomaly at epoch: 334.4729°
orbit number at epoch: 92968

The dashed part of the orbit path shows where the satellite is in the earth's shadow,  

DLR